Franklin, PA

11:48 PM EST on February 25, 2017 (GMT -0500)
Venango Regional

Weather History for KFKL - January, 2014

Change the Weather History Date:

Saturday, January 4, 2014

  Actual Average Record
Temperature  
Mean Temperature 19 °F -  
Max Temperature 30 °F 35 °F 63 °F (1950)
Min Temperature 8 °F 20 °F -4 °F (1979)
Degree Days  
Heating Degree Days 46    
Moisture  
Dew Point 5 °F    
Average Humidity 55    
Maximum Humidity 73    
Minimum Humidity 37    
Precipitation  
Precipitation 0.00 in - - ()
Sea Level Pressure  
Sea Level Pressure 30.12 in    
Wind  
Wind Speed 13 mph (South)    
Max Wind Speed 22 mph    
Max Gust Speed 31 mph    
Visibility 10 miles    
Events      
Averages and records for this station are not official NWS values.
T = Trace of Precipitation, MM = Missing Value Source: NWS Daily Summary

Daily Weather History Graph

Daily Weather History Graph

Search for Another Location

Airport or City:

Trip Planner

Search our weather history database for the weather conditions in past years. The results will help you decide how hot, cold, wet, or windy it might be!

Date:

Astronomy

Jan. 04, 2014 Rise Set
Actual Time 7:45 AM EST 5:03 PM EST
Civil Twilight 7:14 AM EST 5:34 PM EST
Nautical Twilight 6:39 AM EST 6:09 PM EST
Astronomical Twilight 6:06 AM EST 6:42 PM EST
Moon 9:47 AM EST (1/4) 9:24 PM EST (1/4)
Length of Visible Light 10h 19m
Length of Day
9h 17m
Waxing Crescent, 15% of the Moon is Illuminated
Jan 4
Waxing Crescent
Jan 7
First Quarter
Jan 15
Full
Jan 24
Last Quarter
Jan 30
New

Hourly Weather History & Observations

Time (EST) Temp. Windchill Dew Point Humidity Pressure Visibility Wind Dir Wind Speed Gust Speed Precip Events Conditions
12:15 AM 8.6 °F -7.0 °F 1.4 °F 73% 30.23 in 10.0 mi South 12.7 mph - N/A   Overcast
12:35 AM 8.6 °F -8.3 °F 1.4 °F 73% 30.23 in 10.0 mi South 15.0 mph - N/A   Overcast
12:55 AM 8.6 °F -7.0 °F 1.4 °F 73% 30.23 in 10.0 mi South 12.7 mph - N/A   Overcast
1:15 AM 8.6 °F -5.5 °F 1.4 °F 73% 30.23 in 10.0 mi SSW 10.4 mph 17.3 mph N/A   Overcast
1:35 AM 8.6 °F -7.7 °F 1.4 °F 73% 30.22 in 10.0 mi South 13.8 mph - N/A   Overcast
1:55 AM 8.6 °F -5.5 °F 1.4 °F 73% 30.22 in 10.0 mi South 10.4 mph - N/A   Mostly Cloudy
2:15 AM 8.6 °F -7.7 °F 1.4 °F 73% 30.21 in 10.0 mi South 13.8 mph 19.6 mph N/A   Scattered Clouds
2:35 AM 8.6 °F -7.0 °F 1.4 °F 73% 30.22 in 10.0 mi South 12.7 mph - N/A   Partly Cloudy
2:55 AM 8.6 °F -6.3 °F 1.4 °F 73% 30.21 in 10.0 mi South 11.5 mph 16.1 mph N/A   Clear
3:15 AM 8.6 °F -5.5 °F 1.4 °F 73% 30.21 in 10.0 mi South 10.4 mph - N/A   Clear
3:35 AM 8.6 °F -7.0 °F 1.4 °F 73% 30.21 in 10.0 mi South 12.7 mph - N/A   Clear
3:55 AM 8.6 °F -5.5 °F 1.4 °F 73% 30.20 in 10.0 mi South 10.4 mph - N/A   Clear
4:15 AM 8.6 °F -5.5 °F 1.4 °F 73% 30.20 in 10.0 mi South 10.4 mph - N/A   Clear
4:35 AM 8.6 °F -6.3 °F 1.4 °F 73% 30.19 in 10.0 mi SSE 11.5 mph 18.4 mph N/A   Clear
4:55 AM 8.6 °F -6.3 °F -0.4 °F 67% 30.19 in 10.0 mi SSE 11.5 mph - N/A   Clear
5:15 AM 8.6 °F -5.5 °F -0.4 °F 67% 30.18 in 10.0 mi SSE 10.4 mph - N/A   Clear
5:35 AM 8.6 °F -5.5 °F 1.4 °F 73% 30.18 in 10.0 mi South 10.4 mph - N/A   Clear
5:55 AM 8.6 °F -6.3 °F 1.4 °F 73% 30.17 in 10.0 mi South 11.5 mph - N/A   Clear
6:15 AM 8.6 °F -6.3 °F 1.4 °F 73% 30.17 in 10.0 mi South 11.5 mph 16.1 mph N/A   Clear
6:35 AM 8.6 °F -7.0 °F 1.4 °F 73% 30.17 in 10.0 mi SSE 12.7 mph - N/A   Clear
6:55 AM 8.6 °F -8.3 °F -0.4 °F 67% 30.17 in 10.0 mi South 15.0 mph 18.4 mph N/A   Clear
7:15 AM 8.6 °F -9.5 °F 1.4 °F 73% 30.17 in 10.0 mi South 17.3 mph - N/A   Clear
7:35 AM 8.6 °F -9.5 °F 1.4 °F 73% 30.15 in 10.0 mi SSE 17.3 mph - N/A   Clear
7:55 AM 8.6 °F -8.9 °F 1.4 °F 73% 30.15 in 10.0 mi South 16.1 mph 20.7 mph N/A   Clear
8:15 AM 8.6 °F -8.9 °F 1.4 °F 73% 30.15 in 10.0 mi South 16.1 mph 23.0 mph N/A   Clear
8:35 AM 10.4 °F -5.4 °F 1.4 °F 67% 30.15 in 10.0 mi South 13.8 mph - N/A   Clear
8:55 AM 12.2 °F -3.1 °F 1.4 °F 62% 30.15 in 10.0 mi South 13.8 mph - N/A   Clear
9:15 AM 12.2 °F -3.7 °F 3.2 °F 67% 30.15 in 10.0 mi South 15.0 mph - N/A   Clear
9:35 AM 14.0 °F -1.4 °F 3.2 °F 62% 30.14 in 3.0 mi South 15.0 mph - N/A   Clear
9:55 AM 17.6 °F 2.2 °F 3.2 °F 53% 30.14 in 10.0 mi South 17.3 mph 23.0 mph N/A   Clear
10:15 AM 19.4 °F 5.5 °F 5.0 °F 54% 30.14 in 10.0 mi South 15.0 mph - N/A   Clear
10:35 AM 21.2 °F 6.0 °F 5.0 °F 50% 30.13 in 10.0 mi South 19.6 mph 26.5 mph N/A   Clear
10:55 AM 23.0 °F 8.0 °F 6.8 °F 50% 30.12 in 10.0 mi SSW 20.7 mph 31.1 mph N/A   Clear
11:15 AM 24.8 °F 10.7 °F 6.8 °F 46% 30.12 in 3.0 mi South 19.6 mph 24.2 mph N/A   Clear
11:35 AM 24.8 °F 11.5 °F 6.8 °F 46% 30.11 in 10.0 mi South 17.3 mph 26.5 mph N/A   Clear
11:55 AM 26.6 °F 13.8 °F 6.8 °F 43% 30.10 in 10.0 mi SSW 17.3 mph 25.3 mph N/A   Clear
12:15 PM 26.6 °F 12.4 °F 6.8 °F 43% 30.09 in 10.0 mi SSW 21.9 mph 28.8 mph N/A   Clear
12:35 PM 26.6 °F 14.3 °F 8.6 °F 47% 30.08 in 10.0 mi SSW 16.1 mph 21.9 mph N/A   Clear
12:55 PM 26.6 °F 13.1 °F 8.6 °F 47% 30.07 in 10.0 mi South 19.6 mph 25.3 mph N/A   Clear
1:15 PM 26.6 °F 12.7 °F 8.6 °F 47% 30.06 in 10.0 mi South 20.7 mph 24.2 mph N/A   Clear
1:35 PM 26.6 °F 14.7 °F 8.6 °F 47% 30.06 in 10.0 mi SSW 15.0 mph - N/A   Clear
1:55 PM 28.4 °F 18.5 °F 10.4 °F 47% 30.05 in 10.0 mi South 11.5 mph 20.7 mph N/A   Clear
2:15 PM 28.4 °F 16.2 °F 8.6 °F 43% 30.05 in 10.0 mi South 17.3 mph 21.9 mph N/A   Clear
2:35 PM 30.2 °F 19.8 °F 8.6 °F 40% 30.05 in 10.0 mi SSW 13.8 mph 23.0 mph N/A   Clear
2:55 PM 30.2 °F 18.9 °F 8.6 °F 40% 30.05 in 10.0 mi SSW 16.1 mph 21.9 mph N/A   Clear
3:15 PM 30.2 °F 19.3 °F 8.6 °F 40% 30.05 in 10.0 mi SSW 15.0 mph 25.3 mph N/A   Clear
3:35 PM 30.2 °F 18.5 °F 8.6 °F 40% 30.05 in 10.0 mi SSW 17.3 mph 23.0 mph N/A   Clear
3:55 PM 30.2 °F 20.2 °F 8.6 °F 40% 30.05 in 10.0 mi South 12.7 mph - N/A   Clear
4:15 PM 30.2 °F 19.3 °F 10.4 °F 44% 30.05 in 10.0 mi South 15.0 mph - N/A   Clear
4:35 PM 30.2 °F 20.8 °F 8.6 °F 40% 30.05 in 10.0 mi South 11.5 mph - N/A   Clear
4:55 PM 30.2 °F 20.8 °F 6.8 °F 37% 30.05 in 10.0 mi South 11.5 mph - N/A   Clear
5:15 PM 28.4 °F 17.5 °F 8.6 °F 43% 30.05 in 10.0 mi South 13.8 mph - N/A   Clear
5:35 PM 28.4 °F 17.0 °F 8.6 °F 43% 30.04 in 10.0 mi South 15.0 mph - N/A   Clear
5:55 PM 28.4 °F 17.5 °F 6.8 °F 40% 30.04 in 10.0 mi South 13.8 mph - N/A   Clear
6:15 PM 26.6 °F 15.2 °F 6.8 °F 43% 30.05 in 10.0 mi South 13.8 mph - N/A   Clear
6:35 PM 26.6 °F 16.8 °F 6.8 °F 43% 30.05 in 10.0 mi South 10.4 mph - N/A   Clear
6:55 PM 28.4 °F 20.4 °F 6.8 °F 40% 30.06 in 10.0 mi SSW 8.1 mph - N/A   Clear
7:15 PM 26.6 °F 17.5 °F 8.6 °F 47% 30.06 in 10.0 mi South 9.2 mph - N/A   Scattered Clouds
7:35 PM 26.6 °F 17.5 °F 8.6 °F 47% 30.06 in 10.0 mi South 9.2 mph - N/A   Mostly Cloudy
7:55 PM 28.4 °F 19.7 °F 10.4 °F 47% 30.06 in 10.0 mi South 9.2 mph - N/A   Overcast
8:15 PM 28.4 °F 19.1 °F 10.4 °F 47% 30.06 in 10.0 mi South 10.4 mph - N/A   Overcast
8:35 PM 28.4 °F 19.1 °F 10.4 °F 47% 30.07 in 10.0 mi SSW 10.4 mph - N/A   Overcast
8:55 PM 28.4 °F 20.4 °F 8.6 °F 43% 30.07 in 10.0 mi SSW 8.1 mph - N/A   Mostly Cloudy
9:15 PM 28.4 °F 21.2 °F 10.4 °F 47% 30.07 in 10.0 mi SSW 6.9 mph - N/A   Overcast
9:35 PM 30.2 °F 25.4 °F 10.4 °F 44% 30.07 in 10.0 mi SSW 4.6 mph - N/A   Overcast
9:55 PM 28.4 °F 22.2 °F 10.4 °F 47% 30.07 in 10.0 mi SSW 5.8 mph - N/A   Overcast
10:15 PM 28.4 °F 21.2 °F 10.4 °F 47% 30.08 in 10.0 mi South 6.9 mph - N/A   Mostly Cloudy
10:35 PM 26.6 °F 19.1 °F 8.6 °F 47% 30.09 in 10.0 mi South 6.9 mph - N/A   Partly Cloudy
10:55 PM 26.6 °F 19.1 °F 8.6 °F 47% 30.09 in 10.0 mi South 6.9 mph - N/A   Clear
11:15 PM 26.6 °F 19.1 °F 8.6 °F 47% 30.08 in 10.0 mi South 6.9 mph - N/A   Clear
11:35 PM 28.4 °F 21.2 °F 8.6 °F 43% 30.08 in 10.0 mi South 6.9 mph - N/A   Mostly Cloudy
11:55 PM 28.4 °F 22.2 °F 10.4 °F 47% 30.08 in 10.0 mi South 5.8 mph - N/A   Overcast